Ogden Hill AFB, UT

4:15 AM MDT on July 23, 2017 (GMT -0600)
Hill Air Force Base

Weather History for KHIF - January, 2012

Change the Weather History Date:

Sunday, January 15, 2012

  Actual Average Record
Temperature  
Mean Temperature 40 °F -  
Max Temperature 45 °F 34 °F 46 °F (1999)
Min Temperature 32 °F 22 °F 0 °F (2007)
Degree Days  
Heating Degree Days 25    
Moisture  
Dew Point 12 °F    
Average Humidity 33    
Maximum Humidity 50    
Minimum Humidity 26    
Precipitation  
Precipitation 0.00 in - - ()
Sea Level Pressure  
Sea Level Pressure 29.76 in    
Wind  
Wind Speed 13 mph (SSE)    
Max Wind Speed 22 mph    
Max Gust Speed 30 mph    
Visibility 10 miles    
Events      
Averages and records for this station are not official NWS values.
T = Trace of Precipitation, MM = Missing Value Source: NWS Daily Summary

Daily Weather History Graph

Daily Weather History Graph

Search for Another Location

Airport or City:

Trip Planner

Search our weather history database for the weather conditions in past years. The results will help you decide how hot, cold, wet, or windy it might be!

Date:

Astronomy

Jan. 15, 2012 Rise Set
Actual Time 7:51 AM MST 5:23 PM MST
Civil Twilight 7:20 AM MST 5:54 PM MST
Nautical Twilight 6:46 AM MST 6:27 PM MST
Astronomical Twilight 6:13 AM MST 7:01 PM MST
Moon No Moon Rise 11:06 AM MST (1/15)
Length of Visible Light 10h 33m
Length of Day
9h 32m
Waning Gibbous, 57% of the Moon is Illuminated
Jan 15
Waning Gibbous
Jan 16
Last Quarter
Jan 23
New
Jan 30
First Quarter
Feb 7
Full

Hourly Weather History & Observations

Time (MST) Temp. Windchill Dew Point Humidity Pressure Visibility Wind Dir Wind Speed Gust Speed Precip Events Conditions
12:55 AM 38.3 °F 34.8 °F 9.0 °F 30% 29.95 in 10.0 mi SE 4.6 mph - N/A   Clear
1:55 AM 35.2 °F 28.8 °F 12.0 °F 38% 29.93 in 10.0 mi SE 8.1 mph - N/A   Clear
2:55 AM 35.6 °F 26.2 °F 12.4 °F 38% 29.90 in 10.0 mi SSE 15.0 mph - N/A   Clear
3:55 AM 35.2 °F 26.6 °F 14.0 °F 42% 29.88 in 10.0 mi SSE 12.7 mph - N/A   Clear
4:55 AM 37.8 °F 31.3 °F 8.8 °F 30% 29.88 in 10.0 mi SSW 9.2 mph - N/A   Clear
5:55 AM 35.2 °F 27.1 °F 11.8 °F 38% 29.89 in 10.0 mi South 11.5 mph - N/A   Clear
6:55 AM 36.1 °F 28.2 °F 12.0 °F 37% 29.88 in 10.0 mi South 11.5 mph - N/A   Clear
7:55 AM 36.9 °F 28.2 °F 11.1 °F 35% 29.88 in 10.0 mi SSE 13.8 mph - N/A   Partly Cloudy
8:55 AM 35.4 °F 26.8 °F 14.5 °F 42% 29.89 in 10.0 mi SSE 12.7 mph - N/A   Partly Cloudy
9:55 AM 40.8 °F 32.6 °F 10.6 °F 29% 29.86 in 10.0 mi SE 16.1 mph - N/A   Partly Cloudy
10:55 AM 43.0 °F 35.1 °F 11.8 °F 28% 29.81 in 10.0 mi SE 17.3 mph - N/A   Partly Cloudy
11:55 AM 44.2 °F 36.7 °F 10.9 °F 26% 29.78 in 10.0 mi SE 17.3 mph 25.3 mph N/A   Scattered Clouds
12:55 PM 45.3 °F 37.3 °F 12.0 °F 26% 29.73 in 10.0 mi SE 20.7 mph 28.8 mph N/A   Partly Cloudy
1:55 PM 45.3 °F 37.3 °F 12.7 °F 27% 29.69 in 10.0 mi SE 20.7 mph - N/A   Scattered Clouds
2:55 PM 45.5 °F 38.3 °F 12.7 °F 27% 29.67 in 10.0 mi SE 17.3 mph - N/A   Mostly Cloudy
3:55 PM 44.4 °F 36.9 °F 13.1 °F 28% 29.66 in 10.0 mi SE 17.3 mph - N/A   Clear
4:55 PM 43.9 °F 35.7 °F 11.7 °F 27% 29.64 in 10.0 mi SE 19.6 mph 27.6 mph N/A   Scattered Clouds
5:55 PM 42.6 °F 34.0 °F 12.7 °F 30% 29.64 in 10.0 mi SE 19.6 mph - N/A   Mostly Cloudy
6:55 PM 42.8 °F 34.3 °F 13.1 °F 30% 29.62 in 10.0 mi SE 19.6 mph - N/A   Partly Cloudy
7:55 PM 43.0 °F 34.0 °F 13.6 °F 30% 29.60 in 10.0 mi SE 21.9 mph - N/A   Clear
8:55 PM 43.0 °F 34.2 °F 14.2 °F 31% 29.60 in 10.0 mi SSE 20.7 mph 29.9 mph N/A   Mostly Cloudy
9:55 PM 38.8 °F 32.6 °F 16.3 °F 40% 29.60 in 10.0 mi SSW 9.2 mph - N/A   Overcast
10:55 PM 36.5 °F 27.8 °F 13.8 °F 39% 29.61 in 10.0 mi South 13.8 mph 18.4 mph N/A   Clear
11:55 PM 32.0 °F 23.0 °F 15.1 °F 50% 29.63 in 10.0 mi WSW 11.5 mph - N/A   Clear